Home > Time Zones > World Clock > Weather > India > Dausa > Past weeks

Flag for India Weather past 2 weeks in Dausa, Rajasthan, India

Now
79 °F

Passing clouds.


Feels Like: 79 °F
Forecast: 69 / 91 °F
Wind: 3 mph from North

Location: Jaipur / Sanganer

Current Time: Oct 24, 2014 at 2:14:48 AM

Latest Report: Oct 24, 2014 at 1:00 AM


Visibility: 1 mi

Pressure: 29.95 "Hg

Humidity: 45%

Dew point: 55 °F

Location of DausaLocation

Historic Weather in Dausa — Graph

°F

Dausa temperature yesterday

Maximum temperature yesterday: 95 °F (at 3:00 PM)
Minimum temperature yesterday: 70 °F (at 7:00 AM)
Average temperature yesterday: 83 °F

Past Weeks' High & Low Weather Summary

 TemperatureHumidityPressure
High95 °F (Oct 10, 3:00 PM)94% (Oct 16, 5:00 AM)30.12 "Hg (Oct 16, 5:00 AM)
Low64 °F (Oct 18, 6:00 AM)13% (Oct 11, 4:00 PM)29.65 "Hg (Oct 11, 3:00 PM)
Average80 °F47%29.94 "Hg
* Reported Oct 9 3:00 AM — Oct 24 1:00 AM, Dausa, Weather by CustomWeather, © 2014

Note: Actual official high and low records may vary slightly from our data, if they occured in-between our weather recording intervals... More about our weather records

Advertising

Dausa weather history for previous 24 hours

 ConditionsComfort  
Time TempWeatherWind HumidityBarometerVisibility
1:00 AM
Oct 24
79 °FPassing clouds.3 mph45%29.95 "Hg1 mi
11:00 PM
Oct 23
81 °FPassing clouds.3 mph39%29.95 "Hg1 mi
10:00 PM81 °FPassing clouds.2 mph39%29.95 "Hg1 mi
9:00 PM81 °FPassing clouds.1 mph34%29.95 "Hg1 mi
8:00 PM82 °FPassing clouds.No wind37%29.95 "Hg1 mi
7:00 PM86 °FPassing clouds.No wind29%29.92 "Hg1 mi
6:00 PM90 °FPartly sunny.2 mph24%29.92 "Hg1 mi
5:00 PM91 °FScattered clouds.6 mph21%29.89 "Hg1 mi
4:00 PM93 °FScattered clouds.9 mph19%29.89 "Hg1 mi
3:00 PM95 °FScattered clouds.7 mph19%29.92 "Hg1 mi
2:00 PM93 °FHaze.7 mph19%29.95 "Hg1 mi
1:00 PM93 °FHaze.8 mph20%29.98 "Hg1 mi
12:00 PM91 °FHaze.3 mph30%30.01 "Hg1 mi
11:00 AM90 °FClear.3 mph31%30.04 "Hg1 mi
10:00 AM86 °FClear.5 mph38%30.04 "Hg1 mi
9:00 AM81 °FClear.7 mph45%30.04 "Hg1 mi
8:00 AM77 °FSmoke.2 mph54%30.04 "Hg1 mi
7:00 AM70 °FPassing clouds.No wind64%30.01 "Hg1 mi
6:00 AM72 °FPassing clouds.1 mph61%29.98 "Hg1 mi
5:00 AM72 °FPassing clouds.2 mph61%29.98 "Hg1 mi
4:00 AM73 °FPassing clouds.3 mph53%29.98 "Hg1 mi
3:00 AM77 °FPassing clouds.1 mph47%29.98 "Hg1 mi
2:30 AM77 °FPassing clouds.1 mph44%29.98 "Hg1 mi
2:00 AM79 °FPassing clouds.5 mph42%29.98 "Hg1 mi
Weather by CustomWeather, © 2014

See weather overviewHow to use our weather pages